Location: Austin
(30.3000°N, 97.7500°W)
Time: 23:49:33
(UTC-05:00)

Cosmos 1707 Rocket - Pass Details

Date: 08 April 2026
Orbit: 597 x 624 km, 82.5° (Epoch: 20 April)

Event Time Altitude Azimuth Distance (km) Brightness Sun altitude
Rises 20:52:25 0° 4° (N) 2,850 7.1 -13.0°
Reaches altitude 10° 20:54:47 10° 13° (NNE) 1,941 6.2 -13.5°
Maximum altitude 20:58:44 36° 81° (E) 956 4.1 -14.3°
Enters shadow 21:00:48 22° 131° (SE) 1,300 4.7 -14.8°
